Hourly Data Report for May 26, 2022

TORONTO CITY
ONTARIO
Current Station Operator: ECCC - MSC

43°40'00.000" N
79°24'00.000" W
112.50 m
6158355
71508
XTO

Download Data

Hourly Data (May 2022)
Hourly Data Report for May 26, 2022
TIME
LST
Temp Definition
°C
Dew Point Definition
°C
Rel Hum Definition
%
Precip. Amount Definition
mm

Wind Dir Definition
10's deg

Wind Spd Definition
km/h
Visibility Definition
km
Stn Press Definition
kPa
Hmdx Definition


Wind Chill Definition


Weather Definition


00:00 14.5 9.8 74 0.0       100.39     LegendNANA
01:00 14.2 10.0 76 0.0       100.35     LegendNANA
02:00 15.0 10.6 75 0.0       100.29     LegendNANA
03:00 16.3 12.1 76 0.0       100.25     LegendNANA
04:00 17.3 12.1 71 0.0       100.25     LegendNANA
05:00 17.0 12.0 72 0.0       100.22     LegendNANA
06:00 17.2 12.1 72 0.0       100.21     LegendNANA
07:00 17.9 12.7 72 0.0       100.19     LegendNANA
08:00 18.0 12.6 71 0.0       100.18     LegendNANA
09:00 18.9 13.3 70 0.0       100.13     LegendNANA
10:00 20.8 14.0 65 0.0       100.08     LegendNANA
11:00 22.0 14.3 62 0.0       100.06 26   LegendNANA
12:00 23.5 14.8 58 0.0       99.98 27   LegendNANA
13:00 24.1 15.9 60 0.0       99.93 29   LegendNANA
14:00 24.7 16.0 59 0.0       99.90 29   LegendNANA
15:00 24.8 15.7 57 0.0       99.83 29   LegendNANA
16:00 24.1 15.8 60 0.0       99.77 29   LegendNANA
17:00 23.7 16.0 62 0.0       99.71 28   LegendNANA
18:00 23.3 15.7 62 0.0       99.69 28   LegendNANA
19:00 21.6 16.4 72 0.0       99.69 26   LegendNANA
20:00 21.4 16.3 73 0.0       99.64 26   LegendNANA
21:00 20.4 16.0 76 0.0       99.64 25   LegendNANA
22:00 20.7 16.4 76 0.0       99.62 26   LegendNANA
23:00 20.8 16.5 77 0.0       99.60 26   LegendNANA

Notes on Data Quality.

Legend

  • E = Estimated
  • M = Missing
  • NA = Not Available*
  • [empty] = Indicates an unobserved value
Date modified: